Regional Weather Roundup
Issued by NWS

Home | Current Version | Previous Version | Text Only | Print | Product List | Glossary Off
Versions: 1 2 3 4 5 6 7 8 9 10 11 12 13 14 15 16 17 18 19 20 21 22 23 24 25 26 27 28 29 30 31 32 33 34 35 36 37 38 39 40 41 42 43 44 45 46 47 48 49 50

035
ASUS45 KABQ 241610
RWRNM
NEW MEXICO REGIONAL WEATHER ROUNDUP
NATIONAL WEATHER SERVICE ALBUQUERQUE NM
1000 AM MDT WED MAY 24 2017

NOTE: "FAIR" MEANS FEW OR NO CLOUDS BELOW 12,000 FEET AGL WITH NO
       SIGNIFICANT WEATHER OR OBSTRUCTIONS TO VISION.

      THIS PRODUCT IS RELEASED AS TWO VERSIONS.  ONE VERSION NEAR
      THE TOP OF THE HOUR CONTAINING PRELIMINARY DATA FROM ALBUQUERQUE
      AND OTHER STATIONS.  A FINAL VERSION WITH ADDITIONAL DATA IS
      ISSUED ABOUT 10 MINUTES AFTER THE HOUR.

NMZ501-503-504-510>518-241700-
NORTHWEST PLATEAU/NORTHCENTRAL MOUNTAINS

CITY           SKY/WX    TMP DP  RH WIND       PRES   REMARKS
FARMINGTON     FAIR      65  31  28 VRB6      30.01F
LOS ALAMOS     FAIR      56  28  34 N5        30.09F
SANTA FE       FAIR      64  32  30 N6        30.04F
TAOS           FAIR      55  27  33 SW6       30.10F
ANGEL FIRE     FAIR      56  28  34 W18       30.10F

$$
NMZ402-403-502-505>509-241700-
WESTCENTRAL MOUNTAINS/SOUTHWEST MOUNTAINS

CITY           SKY/WX    TMP DP  RH WIND       PRES   REMARKS
GALLUP         FAIR      68  31  25 W10       30.10F
GRANTS         FAIR      67  27  22 CALM      30.10F
SILVER CITY    FAIR      69  37  31 S5        30.09S

$$
NMZ407-409-411-412-241700-
SOUTHERN DESERTS

CITY           SKY/WX    TMP DP  RH WIND       PRES   REMARKS
DEMING         FAIR      71  39  31 W3        30.04S
LAS CRUCES     FAIR      71  38  30 S7        30.05S
HOLLOMAN AFB   FAIR      67  38  33 SE7       30.07S
ALAMOGORDO     FAIR      66  37  34 S5        30.05F
T OR C         FAIR      71  37  28 S12       30.02F

$$
NMZ519>523-241700-
CENTRAL VALLEYS/CENTRAL HIGHLANDS

CITY           SKY/WX    TMP DP  RH WIND       PRES   REMARKS
ALBUQUERQUE    FAIR      64  32  30 W7        30.05F
DOUBLE EAGLE   SUNNY     63  34  34 VRB3      30.07F
MORIARTY ARPT  FAIR      63  34  33 S7        30.06F
CLINES CORNERS FAIR      63  27  25 W15       30.07F
BELEN          FAIR      65  28  24 CALM      30.04F
SOCORRO        FAIR      67  31  26 SE7       30.04F

$$
NMZ524>526-539-540-241700-
SOUTHCENTRAL MOUNTAINS

CITY           SKY/WX    TMP DP  RH WIND       PRES   REMARKS
RUIDOSO        FAIR      66  25  20 NW17      30.11S

$$
NMZ527>531-241700-
NORTHEAST HIGHLANDS/NORTHEAST PLAINS

CITY           SKY/WX    TMP DP  RH WIND       PRES   REMARKS
LAS VEGAS      FAIR      62  27  26 S8        30.02F
RATON          FAIR      55  36  48 VRB5      29.95F
CLAYTON        FAIR      67  40  37 SW15G22   29.88F

$$
NMZ532>537-241700-
EASTCENTRAL PLAINS

CITY           SKY/WX    TMP DP  RH WIND       PRES   REMARKS
SANTA ROSA     FAIR      65  34  32 SW7       29.96F
TUCUMCARI      FAIR      70  40  33 SW18      29.90F
CANNON AFB     FAIR      66  39  37 W21       29.97F
CLOVIS AIRPORT FAIR      66  39  37 W21G28    29.95F

$$
NMZ028-029-538-241700-
SOUTHEAST PLAINS

CITY           SKY/WX    TMP DP  RH WIND       PRES   REMARKS
ROSWELL        FAIR      68  39  34 S8        29.97F
ARTESIA          N/A     70  41  35 S10       29.98F
CARLSBAD       FAIR      74  37  26 S17       29.95F
HOBBS          SUNNY     70  34  26 S13       30.00F


$$




USA.gov is the U.S. government's official web portal to all federal, state and local government web resources and services.